Year,Month,Day,Hour,Minute,Value (Times are PST for temperature in C)
2010,08,16,00,00,23.20
2010,08,16,00,01,23.10
2010,08,16,00,02,23.00
2010,08,16,00,03,23.00
2010,08,16,00,04,22.90
2010,08,16,00,05,22.80
2010,08,16,00,06,22.70
2010,08,16,00,07,22.70
2010,08,16,00,08,22.60
2010,08,16,00,09,22.50
2010,08,16,00,10,22.40
2010,08,16,00,11,22.40
2010,08,16,00,12,22.30
2010,08,16,00,13,22.30
2010,08,16,00,14,22.20
2010,08,16,00,15,22.20
2010,08,16,00,16,22.10
2010,08,16,00,17,22.10
2010,08,16,00,18,22.00
2010,08,16,00,19,22.00
2010,08,16,00,20,22.00
2010,08,16,00,21,21.90
2010,08,16,00,22,21.80
2010,08,16,00,23,21.80
2010,08,16,00,24,21.80
2010,08,16,00,25,21.70
2010,08,16,00,26,21.70
2010,08,16,00,27,21.70
2010,08,16,00,28,21.60
2010,08,16,00,29,21.50
2010,08,16,00,30,21.50
2010,08,16,00,31,21.40
2010,08,16,00,32,21.30
2010,08,16,00,33,21.20
2010,08,16,00,34,21.10
2010,08,16,00,35,21.00
2010,08,16,00,36,21.00
2010,08,16,00,37,20.90
2010,08,16,00,38,20.90
2010,08,16,00,39,20.90
2010,08,16,00,40,20.90
2010,08,16,00,41,20.90
2010,08,16,00,42,20.90
2010,08,16,00,43,20.90
2010,08,16,00,44,20.90
2010,08,16,00,45,20.90
2010,08,16,00,46,20.80
2010,08,16,00,47,20.80
2010,08,16,00,48,20.80
2010,08,16,00,49,20.80
2010,08,16,00,50,20.80
2010,08,16,00,51,20.80
2010,08,16,00,52,20.70
2010,08,16,00,53,20.70
2010,08,16,00,54,20.70
2010,08,16,00,55,20.70
2010,08,16,00,56,20.70
2010,08,16,00,57,20.60
2010,08,16,00,58,20.60
2010,08,16,00,59,20.60
2010,08,16,01,00,20.60
2010,08,16,01,01,20.70
2010,08,16,01,02,20.80
2010,08,16,01,03,20.80
2010,08,16,01,04,21.00
2010,08,16,01,05,21.20
2010,08,16,01,06,21.40
2010,08,16,01,07,21.60
2010,08,16,01,08,21.80
2010,08,16,01,09,22.00
2010,08,16,01,10,22.20
2010,08,16,01,11,22.40
2010,08,16,01,12,22.60
2010,08,16,01,13,22.80
2010,08,16,01,14,23.00
2010,08,16,01,15,23.20
2010,08,16,01,16,23.40
2010,08,16,01,17,23.50
2010,08,16,01,18,23.70
2010,08,16,01,19,23.80
2010,08,16,01,20,23.90
2010,08,16,01,21,24.00
2010,08,16,01,22,24.10
2010,08,16,01,23,24.20
2010,08,16,01,24,24.30
2010,08,16,01,25,24.40
2010,08,16,01,26,24.50
2010,08,16,01,27,24.60
2010,08,16,01,28,24.60
2010,08,16,01,29,24.70
2010,08,16,01,30,24.80
2010,08,16,01,31,24.80
2010,08,16,01,32,24.90
2010,08,16,01,33,25.00
2010,08,16,01,34,25.10
2010,08,16,01,35,25.10
2010,08,16,01,36,25.20
2010,08,16,01,37,25.20
2010,08,16,01,38,25.20
2010,08,16,01,39,25.30
2010,08,16,01,40,25.30
2010,08,16,01,41,25.30
2010,08,16,01,42,25.30
2010,08,16,01,43,25.30
2010,08,16,01,44,25.30
2010,08,16,01,45,25.30
2010,08,16,01,46,25.30
2010,08,16,01,47,25.30
2010,08,16,01,48,25.30
2010,08,16,01,49,25.30
2010,08,16,01,50,25.30
2010,08,16,01,51,25.30
2010,08,16,01,52,25.20
2010,08,16,01,53,25.30
2010,08,16,01,54,25.30
2010,08,16,01,55,25.30
2010,08,16,01,56,25.30
2010,08,16,01,57,25.30
2010,08,16,01,58,25.30
2010,08,16,01,59,25.20
2010,08,16,02,00,25.20
2010,08,16,02,01,25.20
2010,08,16,02,02,25.20
2010,08,16,02,03,25.10
2010,08,16,02,04,25.10
2010,08,16,02,05,25.10
2010,08,16,02,06,25.10
2010,08,16,02,07,25.10
2010,08,16,02,08,25.10
2010,08,16,02,09,25.10
2010,08,16,02,10,25.10
2010,08,16,02,11,25.10
2010,08,16,02,12,25.10
2010,08,16,02,13,25.10
2010,08,16,02,14,25.10
2010,08,16,02,15,25.10
2010,08,16,02,16,25.10
2010,08,16,02,17,25.10
2010,08,16,02,18,25.10
2010,08,16,02,19,25.10
2010,08,16,02,20,25.10
2010,08,16,02,21,25.10
2010,08,16,02,22,25.10
2010,08,16,02,23,25.10
2010,08,16,02,24,25.10
2010,08,16,02,25,25.00
2010,08,16,02,26,25.00
2010,08,16,02,27,25.00
2010,08,16,02,28,25.00
2010,08,16,02,29,25.00
2010,08,16,02,30,24.90
2010,08,16,02,31,24.90
2010,08,16,02,32,24.90
2010,08,16,02,33,24.90
2010,08,16,02,34,24.80
2010,08,16,02,35,24.80
2010,08,16,02,36,24.80
2010,08,16,02,37,24.70
2010,08,16,02,38,24.70
2010,08,16,02,39,24.70
2010,08,16,02,40,24.70
2010,08,16,02,41,24.60
2010,08,16,02,42,24.60
2010,08,16,02,43,24.60
2010,08,16,02,44,24.60
2010,08,16,02,45,24.60
2010,08,16,02,46,24.60
2010,08,16,02,47,24.60
2010,08,16,02,48,24.70
2010,08,16,02,49,24.70
2010,08,16,02,50,24.70
2010,08,16,02,51,24.80
2010,08,16,02,52,24.80
2010,08,16,02,53,24.80
2010,08,16,02,54,24.70
2010,08,16,02,55,24.70
2010,08,16,02,56,24.60
2010,08,16,02,57,24.60
2010,08,16,02,58,24.50
2010,08,16,02,59,24.50
2010,08,16,03,00,24.50
2010,08,16,03,01,24.50
2010,08,16,03,02,24.40
2010,08,16,03,03,24.40
2010,08,16,03,04,24.40
2010,08,16,03,05,24.40
2010,08,16,03,06,24.40
2010,08,16,03,07,24.40
2010,08,16,03,08,24.40
2010,08,16,03,09,24.40
2010,08,16,03,10,24.40
2010,08,16,03,11,24.50
2010,08,16,03,12,24.50
2010,08,16,03,13,24.40
2010,08,16,03,14,24.40
2010,08,16,03,15,24.40
2010,08,16,03,16,24.40
2010,08,16,03,17,24.40
2010,08,16,03,18,24.40
2010,08,16,03,19,24.40
2010,08,16,03,20,24.40
2010,08,16,03,21,24.40
2010,08,16,03,22,24.40
2010,08,16,03,23,24.40
2010,08,16,03,24,24.40
2010,08,16,03,25,24.40
2010,08,16,03,26,24.40
2010,08,16,03,27,24.40
2010,08,16,03,28,24.40
2010,08,16,03,29,24.40
2010,08,16,03,30,24.40
2010,08,16,03,31,24.30
2010,08,16,03,32,24.30
2010,08,16,03,33,24.30
2010,08,16,03,34,24.20
2010,08,16,03,35,24.20
2010,08,16,03,36,24.10
2010,08,16,03,37,24.00
2010,08,16,03,38,24.00
2010,08,16,03,39,23.90
2010,08,16,03,40,23.90
2010,08,16,03,41,23.80
2010,08,16,03,42,23.70
2010,08,16,03,43,23.60
2010,08,16,03,44,23.50
2010,08,16,03,45,23.30
2010,08,16,03,46,23.20
2010,08,16,03,47,23.00
2010,08,16,03,48,22.90
2010,08,16,03,49,22.80
2010,08,16,03,50,22.70
2010,08,16,03,51,22.60
2010,08,16,03,52,22.50
2010,08,16,03,53,22.40
2010,08,16,03,54,22.40
2010,08,16,03,55,22.30
2010,08,16,03,56,22.30
2010,08,16,03,57,22.30
2010,08,16,03,58,22.40
2010,08,16,03,59,22.40
2010,08,16,04,00,22.40
2010,08,16,04,01,22.50
2010,08,16,04,02,22.50
2010,08,16,04,03,22.60
2010,08,16,04,04,22.60
2010,08,16,04,05,22.60
2010,08,16,04,06,22.70
2010,08,16,04,07,22.70
2010,08,16,04,08,22.80
2010,08,16,04,09,22.80
2010,08,16,04,10,22.80
2010,08,16,04,11,22.80
2010,08,16,04,12,22.90
2010,08,16,04,13,23.00
2010,08,16,04,14,23.00
2010,08,16,04,15,23.10
2010,08,16,04,16,23.10
2010,08,16,04,17,23.10
2010,08,16,04,18,23.00
2010,08,16,04,19,23.00
2010,08,16,04,20,23.00
2010,08,16,04,21,23.00
2010,08,16,04,22,23.10
2010,08,16,04,23,23.10
2010,08,16,04,24,23.00
2010,08,16,04,25,22.90
2010,08,16,04,26,22.70
2010,08,16,04,27,22.60
2010,08,16,04,28,22.50
2010,08,16,04,29,22.40
2010,08,16,04,30,22.30
2010,08,16,04,31,22.20
2010,08,16,04,32,22.10
2010,08,16,04,33,22.00
2010,08,16,04,34,21.90
2010,08,16,04,35,21.80
2010,08,16,04,36,21.80
2010,08,16,04,37,21.80
2010,08,16,04,38,21.80
2010,08,16,04,39,21.80
2010,08,16,04,40,21.80
2010,08,16,04,41,21.80
2010,08,16,04,42,21.90
2010,08,16,04,43,21.90
2010,08,16,04,44,21.90
2010,08,16,04,45,21.90
2010,08,16,04,46,21.90
2010,08,16,04,47,21.90
2010,08,16,04,48,21.80
2010,08,16,04,49,21.80
2010,08,16,04,50,21.80
2010,08,16,04,51,21.70
2010,08,16,04,52,21.70
2010,08,16,04,53,21.60
2010,08,16,04,54,21.60
2010,08,16,04,55,21.60
2010,08,16,04,56,21.60
2010,08,16,04,57,21.60
2010,08,16,04,58,21.60
2010,08,16,04,59,21.60
2010,08,16,05,00,21.60
2010,08,16,05,01,21.60
2010,08,16,05,02,21.50
2010,08,16,05,03,21.50
2010,08,16,05,04,21.50
2010,08,16,05,05,21.50
2010,08,16,05,06,21.40
2010,08,16,05,07,21.40
2010,08,16,05,08,21.30
2010,08,16,05,09,21.30
2010,08,16,05,10,21.30
2010,08,16,05,11,21.30
2010,08,16,05,12,21.30
2010,08,16,05,13,21.30
2010,08,16,05,14,21.30
2010,08,16,05,15,21.40
2010,08,16,05,16,21.40
2010,08,16,05,17,21.50
2010,08,16,05,18,21.60
2010,08,16,05,19,21.60
2010,08,16,05,20,21.60
2010,08,16,05,21,21.70
2010,08,16,05,22,21.70
2010,08,16,05,23,21.70
2010,08,16,05,24,21.70
2010,08,16,05,25,21.70
2010,08,16,05,26,21.70
2010,08,16,05,27,21.70
2010,08,16,05,28,21.70
2010,08,16,05,29,21.70
2010,08,16,05,30,21.70
2010,08,16,05,31,21.80
2010,08,16,05,32,21.80
2010,08,16,05,33,21.80
2010,08,16,05,34,21.80
2010,08,16,05,35,21.80
2010,08,16,05,36,21.90
2010,08,16,05,37,21.90
2010,08,16,05,38,21.90
2010,08,16,05,39,22.00
2010,08,16,05,40,22.00
2010,08,16,05,41,22.10
2010,08,16,05,42,22.10
2010,08,16,05,43,22.10
2010,08,16,05,44,22.00
2010,08,16,05,45,21.90
2010,08,16,05,46,21.90
2010,08,16,05,47,21.80
2010,08,16,05,48,21.80
2010,08,16,05,49,21.80
2010,08,16,05,50,21.80
2010,08,16,05,51,21.80
2010,08,16,05,52,21.80
2010,08,16,05,53,21.80
2010,08,16,05,54,21.80
2010,08,16,05,55,21.80
2010,08,16,05,56,21.80
2010,08,16,05,57,21.80
2010,08,16,05,58,21.80
2010,08,16,05,59,21.80
2010,08,16,06,00,21.80
2010,08,16,06,01,21.80
2010,08,16,06,02,21.80
2010,08,16,06,03,21.80
2010,08,16,06,04,21.80
2010,08,16,06,05,21.80
2010,08,16,06,06,21.80
2010,08,16,06,07,21.80
2010,08,16,06,08,21.80
2010,08,16,06,09,21.80
2010,08,16,06,10,21.80
2010,08,16,06,11,21.80
2010,08,16,06,12,21.90
2010,08,16,06,13,21.90
2010,08,16,06,14,21.90
2010,08,16,06,15,21.90
2010,08,16,06,16,21.90
2010,08,16,06,17,22.00
2010,08,16,06,18,22.00
2010,08,16,06,19,22.00
2010,08,16,06,20,22.10
2010,08,16,06,21,22.10
2010,08,16,06,22,22.10
2010,08,16,06,23,22.10
2010,08,16,06,24,22.10
2010,08,16,06,25,22.20
2010,08,16,06,26,22.20
2010,08,16,06,27,22.20
2010,08,16,06,28,22.20
2010,08,16,06,29,22.30
2010,08,16,06,30,22.30
2010,08,16,06,31,22.30
2010,08,16,06,32,22.30
2010,08,16,06,33,22.30
2010,08,16,06,34,22.30
2010,08,16,06,35,22.30
2010,08,16,06,36,22.30
2010,08,16,06,37,22.30
2010,08,16,06,38,22.30
2010,08,16,06,39,22.20
2010,08,16,06,40,22.20
2010,08,16,06,41,22.20
2010,08,16,06,42,22.20
2010,08,16,06,43,22.10
2010,08,16,06,44,22.10
2010,08,16,06,45,22.10
2010,08,16,06,46,22.10
2010,08,16,06,47,22.10
2010,08,16,06,48,22.20
2010,08,16,06,49,22.20
2010,08,16,06,50,22.20
2010,08,16,06,51,22.20
2010,08,16,06,52,22.20
2010,08,16,06,53,22.30
2010,08,16,06,54,22.30
2010,08,16,06,55,22.30
2010,08,16,06,56,22.30
2010,08,16,06,57,22.40
2010,08,16,06,58,22.40
2010,08,16,06,59,22.40
2010,08,16,07,00,22.40
2010,08,16,07,01,22.50
2010,08,16,07,02,22.50
2010,08,16,07,03,22.60
2010,08,16,07,04,22.60
2010,08,16,07,05,22.60
2010,08,16,07,06,22.60
2010,08,16,07,07,22.60
2010,08,16,07,08,22.70
2010,08,16,07,09,22.70
2010,08,16,07,10,22.70
2010,08,16,07,11,22.80
2010,08,16,07,12,22.80
2010,08,16,07,13,22.90
2010,08,16,07,14,23.00
2010,08,16,07,15,23.00
2010,08,16,07,16,23.10
2010,08,16,07,17,23.20
2010,08,16,07,18,23.30
2010,08,16,07,19,23.30
2010,08,16,07,20,23.40
2010,08,16,07,21,23.40
2010,08,16,07,22,23.50
2010,08,16,07,23,23.60
2010,08,16,07,24,23.60
2010,08,16,07,25,23.70
2010,08,16,07,26,23.70
2010,08,16,07,27,23.70
2010,08,16,07,28,23.70
2010,08,16,07,29,23.70
2010,08,16,07,30,23.80
2010,08,16,07,31,23.80
2010,08,16,07,32,23.80
2010,08,16,07,33,23.80
2010,08,16,07,34,23.80
2010,08,16,07,35,23.90
2010,08,16,07,36,23.90
2010,08,16,07,37,24.00
2010,08,16,07,38,24.00
2010,08,16,07,39,24.10
2010,08,16,07,40,24.10
2010,08,16,07,41,24.20
2010,08,16,07,42,24.20
2010,08,16,07,43,24.30
2010,08,16,07,44,24.30
2010,08,16,07,45,24.40
2010,08,16,07,46,24.40
2010,08,16,07,47,24.50
2010,08,16,07,48,24.50
2010,08,16,07,49,24.60
2010,08,16,07,50,24.60
2010,08,16,07,51,24.60
2010,08,16,07,52,24.70
2010,08,16,07,53,24.70
2010,08,16,07,54,24.80
2010,08,16,07,55,24.80
2010,08,16,07,56,24.90
2010,08,16,07,57,24.90
2010,08,16,07,58,25.00
2010,08,16,07,59,25.10
2010,08,16,08,00,25.10
2010,08,16,08,01,25.20
2010,08,16,08,02,25.20
2010,08,16,08,03,25.30
2010,08,16,08,04,25.30
2010,08,16,08,05,25.40
2010,08,16,08,06,25.40
2010,08,16,08,07,25.40
2010,08,16,08,08,25.40
2010,08,16,08,09,25.40
2010,08,16,08,10,25.50
2010,08,16,08,11,25.50
2010,08,16,08,12,25.50
2010,08,16,08,13,25.60
2010,08,16,08,14,25.60
2010,08,16,08,15,25.70
2010,08,16,08,16,25.70
2010,08,16,08,17,25.80
2010,08,16,08,18,25.80
2010,08,16,08,19,25.90
2010,08,16,08,20,25.90
2010,08,16,08,21,25.90
2010,08,16,08,22,25.90
2010,08,16,08,23,25.90
2010,08,16,08,24,26.00
2010,08,16,08,25,26.00
2010,08,16,08,26,26.10
2010,08,16,08,27,26.10
2010,08,16,08,28,26.20
2010,08,16,08,29,26.20
2010,08,16,08,30,26.20
2010,08,16,08,31,26.20
2010,08,16,08,32,26.30
2010,08,16,08,33,26.30
2010,08,16,08,34,26.30
2010,08,16,08,35,26.30
2010,08,16,08,36,26.30
2010,08,16,08,37,26.40
2010,08,16,08,38,26.40
2010,08,16,08,39,26.40
2010,08,16,08,40,26.40
2010,08,16,08,41,26.50
2010,08,16,08,42,26.50
2010,08,16,08,43,26.50
2010,08,16,08,44,26.50
2010,08,16,08,45,26.50
2010,08,16,08,46,26.60
2010,08,16,08,47,26.60
2010,08,16,08,48,26.60
2010,08,16,08,49,26.70
2010,08,16,08,50,26.70
2010,08,16,08,51,26.70
2010,08,16,08,52,26.80
2010,08,16,08,53,26.80
2010,08,16,08,54,26.80
2010,08,16,08,55,26.80
2010,08,16,08,56,26.80
2010,08,16,08,57,26.90
2010,08,16,08,58,26.90
2010,08,16,08,59,26.90
2010,08,16,09,00,26.90
2010,08,16,09,01,26.90
2010,08,16,09,02,26.90
2010,08,16,09,03,26.90
2010,08,16,09,04,26.90
2010,08,16,09,05,27.00
2010,08,16,09,06,27.00
2010,08,16,09,07,27.00
2010,08,16,09,08,27.10
2010,08,16,09,09,27.00
2010,08,16,09,10,26.90
2010,08,16,09,11,26.90
2010,08,16,09,12,26.80
2010,08,16,09,13,26.80
2010,08,16,09,14,26.80
2010,08,16,09,15,26.90
2010,08,16,09,16,26.90
2010,08,16,09,17,26.90
2010,08,16,09,18,27.00
2010,08,16,09,19,27.10
2010,08,16,09,20,27.20
2010,08,16,09,21,27.20
2010,08,16,09,22,27.10
2010,08,16,09,23,27.00
2010,08,16,09,24,26.90
2010,08,16,09,25,26.80
2010,08,16,09,26,26.80
2010,08,16,09,27,26.80
2010,08,16,09,28,26.70
2010,08,16,09,29,26.60
2010,08,16,09,30,26.50
2010,08,16,09,31,26.40
2010,08,16,09,32,26.30
2010,08,16,09,33,26.10
2010,08,16,09,34,26.00
2010,08,16,09,35,25.90
2010,08,16,09,36,25.80
2010,08,16,09,37,25.70
2010,08,16,09,38,25.60
2010,08,16,09,39,25.50
2010,08,16,09,40,25.50
2010,08,16,09,41,25.40
2010,08,16,09,42,25.30
2010,08,16,09,43,25.30
2010,08,16,09,44,25.30
2010,08,16,09,45,25.30
2010,08,16,09,46,25.30
2010,08,16,09,47,25.30
2010,08,16,09,48,25.20
2010,08,16,09,49,25.20
2010,08,16,09,50,25.10
2010,08,16,09,51,25.10
2010,08,16,09,52,25.10
2010,08,16,09,53,25.20
2010,08,16,09,54,25.20
2010,08,16,09,55,25.20
2010,08,16,09,56,25.20
2010,08,16,09,57,25.10
2010,08,16,09,58,25.10
2010,08,16,09,59,25.10
2010,08,16,10,00,25.10
2010,08,16,10,01,25.10
2010,08,16,10,02,25.00
2010,08,16,10,03,25.00
2010,08,16,10,04,25.00
2010,08,16,10,05,25.10
2010,08,16,10,06,25.10
2010,08,16,10,07,25.10
2010,08,16,10,08,25.20
2010,08,16,10,09,25.20
2010,08,16,10,10,25.30
2010,08,16,10,11,25.30
2010,08,16,10,12,25.40
2010,08,16,10,13,25.40
2010,08,16,10,14,25.30
2010,08,16,10,15,25.30
2010,08,16,10,16,25.20
2010,08,16,10,17,25.10
2010,08,16,10,18,24.90
2010,08,16,10,19,24.90
2010,08,16,10,20,24.80
2010,08,16,10,21,24.80
2010,08,16,10,22,24.80
2010,08,16,10,23,24.80
2010,08,16,10,24,24.90
2010,08,16,10,25,25.00
2010,08,16,10,26,25.00
2010,08,16,10,27,25.10
2010,08,16,10,28,25.00
2010,08,16,10,29,24.90
2010,08,16,10,30,24.90
2010,08,16,10,31,24.80
2010,08,16,10,32,24.80
2010,08,16,10,33,24.80
2010,08,16,10,34,24.80
2010,08,16,10,35,24.90
2010,08,16,10,36,24.90
2010,08,16,10,37,24.90
2010,08,16,10,38,24.90
2010,08,16,10,39,25.00
2010,08,16,10,40,25.10
2010,08,16,10,41,25.10
2010,08,16,10,42,25.10
2010,08,16,10,43,25.10
2010,08,16,10,44,25.10
2010,08,16,10,45,25.10
2010,08,16,10,46,25.10
2010,08,16,10,47,25.20
2010,08,16,10,48,25.20
2010,08,16,10,49,25.30
2010,08,16,10,50,25.30
2010,08,16,10,51,25.20
2010,08,16,10,52,25.20
2010,08,16,10,53,25.20
2010,08,16,10,54,25.20
2010,08,16,10,55,25.20
2010,08,16,10,56,25.30
2010,08,16,10,57,25.20
2010,08,16,10,58,25.30
2010,08,16,10,59,25.30
2010,08,16,11,00,25.30
2010,08,16,11,01,25.30
2010,08,16,11,02,25.30
2010,08,16,11,03,25.30
2010,08,16,11,04,25.30
2010,08,16,11,05,25.30
2010,08,16,11,06,25.30
2010,08,16,11,07,25.20
2010,08,16,11,08,25.20
2010,08,16,11,09,25.30
2010,08,16,11,10,25.30
2010,08,16,11,11,25.30
2010,08,16,11,12,25.40
2010,08,16,11,13,25.40
2010,08,16,11,14,25.40
2010,08,16,11,15,25.50
2010,08,16,11,16,25.60
2010,08,16,11,17,25.70
2010,08,16,11,18,25.70
2010,08,16,11,19,25.70
2010,08,16,11,20,25.70
2010,08,16,11,21,25.60
2010,08,16,11,22,25.40
2010,08,16,11,23,25.30
2010,08,16,11,24,25.20
2010,08,16,11,25,25.10
2010,08,16,11,26,25.10
2010,08,16,11,27,25.10
2010,08,16,11,28,25.10
2010,08,16,11,29,25.00
2010,08,16,11,30,24.90
2010,08,16,11,31,24.80
2010,08,16,11,32,24.80
2010,08,16,11,33,24.80
2010,08,16,11,34,24.80
2010,08,16,11,35,24.80
2010,08,16,11,36,24.90
2010,08,16,11,37,24.90
2010,08,16,11,38,24.90
2010,08,16,11,39,24.80
2010,08,16,11,40,24.90
2010,08,16,11,41,24.90
2010,08,16,11,42,25.00
2010,08,16,11,43,25.00
2010,08,16,11,44,25.10
2010,08,16,11,45,25.10
2010,08,16,11,46,25.20
2010,08,16,11,47,25.20
2010,08,16,11,48,25.20
2010,08,16,11,49,25.10
2010,08,16,11,50,25.20
2010,08,16,11,51,25.20
2010,08,16,11,52,25.20
2010,08,16,11,53,25.20
2010,08,16,11,54,25.30
2010,08,16,11,55,25.30
2010,08,16,11,56,25.30
2010,08,16,11,57,25.40
2010,08,16,11,58,25.40
2010,08,16,11,59,25.40
2010,08,16,12,00,25.40
2010,08,16,12,01,25.40
2010,08,16,12,02,25.40
2010,08,16,12,03,25.40
2010,08,16,12,04,25.40
2010,08,16,12,05,25.40
2010,08,16,12,06,25.40
2010,08,16,12,07,25.40
2010,08,16,12,08,25.30
2010,08,16,12,09,25.30
2010,08,16,12,10,25.30
2010,08,16,12,11,25.20
2010,08,16,12,12,25.20
2010,08,16,12,13,25.20
2010,08,16,12,14,25.20
2010,08,16,12,15,25.30
2010,08,16,12,16,25.40
2010,08,16,12,17,25.50
2010,08,16,12,18,25.50
2010,08,16,12,19,25.60
2010,08,16,12,20,25.60
2010,08,16,12,21,25.60
2010,08,16,12,22,25.70
2010,08,16,12,23,25.80
2010,08,16,12,24,25.80
2010,08,16,12,25,25.90
2010,08,16,12,26,25.90
2010,08,16,12,27,25.90
2010,08,16,12,28,25.90
2010,08,16,12,29,26.00
2010,08,16,12,30,26.00
2010,08,16,12,31,26.00
2010,08,16,12,32,26.10
2010,08,16,12,33,26.10
2010,08,16,12,34,26.20
2010,08,16,12,35,26.20
2010,08,16,12,36,26.30
2010,08,16,12,37,26.30
2010,08,16,12,38,26.40
2010,08,16,12,39,26.50
2010,08,16,12,40,26.50
2010,08,16,12,41,26.50
2010,08,16,12,42,26.60
2010,08,16,12,43,26.60
2010,08,16,12,44,26.60
2010,08,16,12,45,26.60
2010,08,16,12,46,26.60
2010,08,16,12,47,26.70
2010,08,16,12,48,26.70
2010,08,16,12,49,26.70
2010,08,16,12,50,26.80
2010,08,16,12,51,26.90
2010,08,16,12,52,27.00
2010,08,16,12,53,27.10
2010,08,16,12,54,27.20
2010,08,16,12,55,27.30
2010,08,16,12,56,27.30
2010,08,16,12,57,27.40
2010,08,16,12,58,27.40
2010,08,16,12,59,27.50
2010,08,16,13,00,27.50
2010,08,16,13,01,27.60
2010,08,16,13,02,27.70
2010,08,16,13,03,27.70
2010,08,16,13,04,27.80
2010,08,16,13,05,27.80
2010,08,16,13,06,27.80
2010,08,16,13,07,27.80
2010,08,16,13,08,27.80
2010,08,16,13,09,27.80
2010,08,16,13,10,27.80
2010,08,16,13,11,27.90
2010,08,16,13,12,27.90
2010,08,16,13,13,28.00
2010,08,16,13,14,28.20
2010,08,16,13,15,28.30
2010,08,16,13,16,28.40
2010,08,16,13,17,28.50
2010,08,16,13,18,28.60
2010,08,16,13,19,28.70
2010,08,16,13,20,28.70
2010,08,16,13,21,28.70
2010,08,16,13,22,28.70
2010,08,16,13,23,28.70
2010,08,16,13,24,28.70
2010,08,16,13,25,28.70
2010,08,16,13,26,28.70
2010,08,16,13,27,28.60
2010,08,16,13,28,28.50
2010,08,16,13,29,28.50
2010,08,16,13,30,28.50
2010,08,16,13,31,28.50
2010,08,16,13,32,28.50
2010,08,16,13,33,28.60
2010,08,16,13,34,28.70
2010,08,16,13,35,28.60
2010,08,16,13,36,28.50
2010,08,16,13,37,28.40
2010,08,16,13,38,28.40
2010,08,16,13,39,28.40
2010,08,16,13,40,28.40
2010,08,16,13,41,28.40
2010,08,16,13,42,28.40
2010,08,16,13,43,28.50
2010,08,16,13,44,28.50
2010,08,16,13,45,28.50
2010,08,16,13,46,28.60
2010,08,16,13,47,28.60
2010,08,16,13,48,28.70
2010,08,16,13,49,28.70
2010,08,16,13,50,28.70
2010,08,16,13,51,28.70
2010,08,16,13,52,28.70
2010,08,16,13,53,28.70
2010,08,16,13,54,28.70
2010,08,16,13,55,28.80
2010,08,16,13,56,28.80
2010,08,16,13,57,28.80
2010,08,16,13,58,28.80
2010,08,16,13,59,28.90
2010,08,16,14,00,28.90
2010,08,16,14,01,28.90
2010,08,16,14,02,28.90
2010,08,16,14,03,28.90
2010,08,16,14,04,29.00
2010,08,16,14,05,29.10
2010,08,16,14,06,29.10
2010,08,16,14,07,29.20
2010,08,16,14,08,29.30
2010,08,16,14,09,29.40
2010,08,16,14,10,29.40
2010,08,16,14,11,29.40
2010,08,16,14,12,29.40
2010,08,16,14,13,29.30
2010,08,16,14,14,29.20
2010,08,16,14,15,29.20
2010,08,16,14,16,29.20
2010,08,16,14,17,29.20
2010,08,16,14,18,29.20
2010,08,16,14,19,29.30
2010,08,16,14,20,29.40
2010,08,16,14,21,29.50
2010,08,16,14,22,29.60
2010,08,16,14,23,29.70
2010,08,16,14,24,29.70
2010,08,16,14,25,29.80
2010,08,16,14,26,29.90
2010,08,16,14,27,30.00
2010,08,16,14,28,30.10
2010,08,16,14,29,30.20
2010,08,16,14,30,30.30
2010,08,16,14,31,30.40
2010,08,16,14,32,30.30
2010,08,16,14,33,30.30
2010,08,16,14,34,30.30
2010,08,16,14,35,30.30
2010,08,16,14,36,30.20
2010,08,16,14,37,30.10
2010,08,16,14,38,30.10
2010,08,16,14,39,30.10
2010,08,16,14,40,30.10
2010,08,16,14,41,30.10
2010,08,16,14,42,30.10
2010,08,16,14,43,30.10
2010,08,16,14,44,30.10
2010,08,16,14,45,30.20
2010,08,16,14,46,30.20
2010,08,16,14,47,30.30
2010,08,16,14,48,30.30
2010,08,16,14,49,30.30
2010,08,16,14,50,30.30
2010,08,16,14,51,30.30
2010,08,16,14,52,30.40
2010,08,16,14,53,30.50
2010,08,16,14,54,30.60
2010,08,16,14,55,30.60
2010,08,16,14,56,30.60
2010,08,16,14,57,30.50
2010,08,16,14,58,30.50
2010,08,16,14,59,30.50
2010,08,16,15,00,30.60
2010,08,16,15,01,30.50
2010,08,16,15,02,30.30
2010,08,16,15,03,30.20
2010,08,16,15,04,30.20
2010,08,16,15,05,30.10
2010,08,16,15,06,30.20
2010,08,16,15,07,30.20
2010,08,16,15,08,30.20
2010,08,16,15,09,30.20
2010,08,16,15,10,30.10
2010,08,16,15,11,30.10
2010,08,16,15,12,30.00
2010,08,16,15,13,30.00
2010,08,16,15,14,30.00
2010,08,16,15,15,30.00
2010,08,16,15,16,30.10
2010,08,16,15,17,30.10
2010,08,16,15,18,30.10
2010,08,16,15,19,30.20
2010,08,16,15,20,30.10
2010,08,16,15,21,30.10
2010,08,16,15,22,30.10
2010,08,16,15,23,30.10
2010,08,16,15,24,30.10
2010,08,16,15,25,30.20
2010,08,16,15,26,30.30
2010,08,16,15,27,30.30
2010,08,16,15,28,30.30
2010,08,16,15,29,30.20
2010,08,16,15,30,30.10
2010,08,16,15,31,30.10
2010,08,16,15,32,30.10
2010,08,16,15,33,30.10
2010,08,16,15,34,30.10
2010,08,16,15,35,30.10
2010,08,16,15,36,30.10
2010,08,16,15,37,30.20
2010,08,16,15,38,30.30
2010,08,16,15,39,30.30
2010,08,16,15,40,30.40
2010,08,16,15,41,30.40
2010,08,16,15,42,30.40
2010,08,16,15,43,30.40
2010,08,16,15,44,30.30
2010,08,16,15,45,30.30
2010,08,16,15,46,30.20
2010,08,16,15,47,30.20
2010,08,16,15,48,30.20
2010,08,16,15,49,30.20
2010,08,16,15,50,30.30
2010,08,16,15,51,30.40
2010,08,16,15,52,30.40
2010,08,16,15,53,30.40
2010,08,16,15,54,30.40
2010,08,16,15,55,30.40
2010,08,16,15,56,30.40
2010,08,16,15,57,30.40
2010,08,16,15,58,30.50
2010,08,16,15,59,30.60
2010,08,16,16,00,30.60
2010,08,16,16,01,30.50
2010,08,16,16,02,30.50
2010,08,16,16,03,30.50
2010,08,16,16,04,30.60
2010,08,16,16,05,30.60
2010,08,16,16,06,30.60
2010,08,16,16,07,30.60
2010,08,16,16,08,30.50
2010,08,16,16,09,30.50
2010,08,16,16,10,30.40
2010,08,16,16,11,30.40
2010,08,16,16,12,30.30
2010,08,16,16,13,30.20
2010,08,16,16,14,30.20
2010,08,16,16,15,30.10
2010,08,16,16,16,30.10
2010,08,16,16,17,30.10
2010,08,16,16,18,30.10
2010,08,16,16,19,30.10
2010,08,16,16,20,30.20
2010,08,16,16,21,30.20
2010,08,16,16,22,30.20
2010,08,16,16,23,30.20
2010,08,16,16,24,30.20
2010,08,16,16,25,30.20
2010,08,16,16,26,30.20
2010,08,16,16,27,30.20
2010,08,16,16,28,30.20
2010,08,16,16,29,30.10
2010,08,16,16,30,30.10
2010,08,16,16,31,30.10
2010,08,16,16,32,30.10
2010,08,16,16,33,30.20
2010,08,16,16,34,30.20
2010,08,16,16,35,30.30
2010,08,16,16,36,30.30
2010,08,16,16,37,30.40
2010,08,16,16,38,30.40
2010,08,16,16,39,30.50
2010,08,16,16,40,30.60
2010,08,16,16,41,30.60
2010,08,16,16,42,30.60
2010,08,16,16,43,30.60
2010,08,16,16,44,30.50
2010,08,16,16,45,30.50
2010,08,16,16,46,30.50
2010,08,16,16,47,30.60
2010,08,16,16,48,30.60
2010,08,16,16,49,30.60
2010,08,16,16,50,30.50
2010,08,16,16,51,30.50
2010,08,16,16,52,30.50
2010,08,16,16,53,30.40
2010,08,16,16,54,30.40
2010,08,16,16,55,30.40
2010,08,16,16,56,30.40
2010,08,16,16,57,30.40
2010,08,16,16,58,30.40
2010,08,16,16,59,30.30
2010,08,16,17,00,30.30
2010,08,16,17,01,30.40
2010,08,16,17,02,30.40
2010,08,16,17,03,30.40
2010,08,16,17,04,30.50
2010,08,16,17,05,30.50
2010,08,16,17,06,30.50
2010,08,16,17,07,30.50
2010,08,16,17,08,30.50
2010,08,16,17,09,30.50
2010,08,16,17,10,30.50
2010,08,16,17,11,30.50
2010,08,16,17,12,30.50
2010,08,16,17,13,30.50
2010,08,16,17,14,30.60
2010,08,16,17,15,30.60
2010,08,16,17,16,30.60
2010,08,16,17,17,30.50
2010,08,16,17,18,30.30
2010,08,16,17,19,30.20